TimeCST,TemperatureF,Dew PointF,Humidity,Sea Level PressureIn,VisibilityMPH,Wind Direction,Wind SpeedMPH,Gust SpeedMPH,PrecipitationIn,Events,Conditions,WindDirDegrees,DateUTC
12:15 AM,15.8,15.8,100,29.64,10.0,Calm,Calm,-,N/A,,Overcast,0,2012-12-18 06:15:00
12:35 AM,15.8,15.8,100,29.63,10.0,Calm,Calm,-,N/A,Snow,Light Snow,0,2012-12-18 06:35:00
12:55 AM,17.6,15.8,93,29.63,7.0,Calm,Calm,-,N/A,Snow,Light Snow,0,2012-12-18 06:55:00
1:15 AM,17.6,15.8,93,29.63,7.0,Calm,Calm,-,N/A,Snow,Light Snow,0,2012-12-18 07:15:00
1:35 AM,17.6,15.8,93,29.63,5.0,Calm,Calm,-,N/A,Snow,Light Snow,0,2012-12-18 07:35:00
1:55 AM,17.6,15.8,93,29.63,5.0,Calm,Calm,-,N/A,Snow,Light Snow,0,2012-12-18 07:55:00
2:15 AM,17.6,15.8,93,29.62,4.0,Calm,Calm,-,N/A,Snow,Light Snow,0,2012-12-18 08:15:00
2:35 AM,17.6,15.8,93,29.62,5.0,Calm,Calm,-,N/A,Snow,Light Snow,0,2012-12-18 08:35:00
2:55 AM,17.6,15.8,93,29.62,7.0,Calm,Calm,-,N/A,,Overcast,0,2012-12-18 08:55:00
3:15 AM,17.6,15.8,93,29.62,10.0,Calm,Calm,-,N/A,,Overcast,0,2012-12-18 09:15:00
3:35 AM,17.6,15.8,93,29.62,10.0,Calm,Calm,-,N/A,,Overcast,0,2012-12-18 09:35:00
3:55 AM,17.6,15.8,93,29.62,10.0,Calm,Calm,-,N/A,,Overcast,0,2012-12-18 09:55:00
4:15 AM,17.6,15.8,93,29.62,10.0,Calm,Calm,-,N/A,,Overcast,0,2012-12-18 10:15:00
4:35 AM,17.6,15.8,93,29.62,10.0,Calm,Calm,-,N/A,,Overcast,0,2012-12-18 10:35:00
4:55 AM,17.6,17.6,100,29.61,10.0,Calm,Calm,-,N/A,,Overcast,0,2012-12-18 10:55:00
5:15 AM,17.6,17.6,100,29.62,10.0,Calm,Calm,-,N/A,,Overcast,0,2012-12-18 11:15:00
5:35 AM,17.6,15.8,93,29.63,10.0,Calm,Calm,-,N/A,,Overcast,0,2012-12-18 11:35:00
5:55 AM,17.6,17.6,100,29.63,10.0,Calm,Calm,-,N/A,,Overcast,0,2012-12-18 11:55:00
6:15 AM,17.6,17.6,100,29.63,10.0,Calm,Calm,-,N/A,,Overcast,0,2012-12-18 12:15:00
6:35 AM,19.4,17.6,93,29.63,10.0,Calm,Calm,-,N/A,,Overcast,0,2012-12-18 12:35:00
6:55 AM,19.4,17.6,93,29.63,10.0,Calm,Calm,-,N/A,,Overcast,0,2012-12-18 12:55:00
7:15 AM,19.4,17.6,93,29.63,10.0,Calm,Calm,-,N/A,,Overcast,0,2012-12-18 13:15:00
7:35 AM,19.4,17.6,93,29.63,10.0,Calm,Calm,-,N/A,,Overcast,0,2012-12-18 13:35:00
7:55 AM,19.4,17.6,93,29.63,10.0,Calm,Calm,-,N/A,,Overcast,0,2012-12-18 13:55:00
8:15 AM,19.4,17.6,93,29.63,10.0,Calm,Calm,-,N/A,,Overcast,0,2012-12-18 14:15:00
8:35 AM,19.4,17.6,93,29.63,10.0,Calm,Calm,-,N/A,,Overcast,0,2012-12-18 14:35:00
8:55 AM,19.4,17.6,93,29.63,7.0,Calm,Calm,-,N/A,,Overcast,0,2012-12-18 14:55:00
9:15 AM,19.4,17.6,93,29.64,5.0,Calm,Calm,-,N/A,,Overcast,0,2012-12-18 15:15:00
9:35 AM,19.4,17.6,93,29.64,7.0,Calm,Calm,-,N/A,,Overcast,0,2012-12-18 15:35:00
9:55 AM,19.4,17.6,93,29.64,5.0,Calm,Calm,-,N/A,,Overcast,0,2012-12-18 15:55:00
10:16 AM,19.4,17.6,93,29.65,7.0,Calm,Calm,-,N/A,,Overcast,0,2012-12-18 16:16:00
10:35 AM,19.4,19.4,100,29.65,7.0,Calm,Calm,-,N/A,,Overcast,0,2012-12-18 16:35:00
10:55 AM,21.2,19.4,93,29.65,7.0,Calm,Calm,-,N/A,,Unknown,0,2012-12-18 16:55:00
11:15 AM,21.2,19.4,93,29.64,7.0,Calm,Calm,-,N/A,,Overcast,0,2012-12-18 17:15:00
11:35 AM,21.2,19.4,93,29.64,7.0,Calm,Calm,-,N/A,,Overcast,0,2012-12-18 17:35:00
12:15 PM,21.2,19.4,93,29.64,5.0,Calm,Calm,-,N/A,,Overcast,0,2012-12-18 18:15:00
12:35 PM,21.2,19.4,93,29.64,5.0,Calm,Calm,-,N/A,,Overcast,0,2012-12-18 18:35:00
12:55 PM,21.2,19.4,93,29.64,5.0,Calm,Calm,-,N/A,,Overcast,0,2012-12-18 18:55:00
1:15 PM,23.0,19.4,86,29.64,5.0,Calm,Calm,-,N/A,,Overcast,0,2012-12-18 19:15:00
1:35 PM,23.0,21.2,93,29.64,3.0,Calm,Calm,-,N/A,,Overcast,0,2012-12-18 19:35:00
1:55 PM,23.0,21.2,93,29.63,2.0,Calm,Calm,-,N/A,,Overcast,0,2012-12-18 19:55:00
2:15 PM,23.0,21.2,93,29.64,1.8,Calm,Calm,-,N/A,,Overcast,0,2012-12-18 20:15:00
2:35 PM,23.0,21.2,93,29.64,1.8,Calm,Calm,-,N/A,,Overcast,0,2012-12-18 20:35:00
2:55 PM,23.0,21.2,93,29.64,2.0,Calm,Calm,-,N/A,,Overcast,0,2012-12-18 20:55:00
3:15 PM,23.0,21.2,93,29.64,1.5,Calm,Calm,-,N/A,,Overcast,0,2012-12-18 21:15:00
3:35 PM,23.0,21.2,93,29.64,1.5,Calm,Calm,-,N/A,,Overcast,0,2012-12-18 21:35:00
3:55 PM,23.0,21.2,93,29.65,1.8,Calm,Calm,-,N/A,,Overcast,0,2012-12-18 21:55:00
4:16 PM,23.0,21.2,93,29.65,2.0,Calm,Calm,-,N/A,,Overcast,0,2012-12-18 22:16:00
4:35 PM,23.0,21.2,93,29.66,3.0,Calm,Calm,-,N/A,,Mist,0,2012-12-18 22:35:00
4:55 PM,23.0,21.2,93,29.66,4.0,Calm,Calm,-,N/A,,Overcast,0,2012-12-18 22:55:00
5:15 PM,23.0,21.2,93,29.66,4.0,Calm,Calm,-,N/A,,Overcast,0,2012-12-18 23:15:00
5:35 PM,23.0,21.2,93,29.67,5.0,Calm,Calm,-,N/A,,Overcast,0,2012-12-18 23:35:00
5:55 PM,23.0,21.2,93,29.67,5.0,Calm,Calm,-,N/A,,Overcast,0,2012-12-18 23:55:00
6:15 PM,23.0,21.2,93,29.67,5.0,Calm,Calm,-,N/A,,Overcast,0,2012-12-19 00:15:00
6:36 PM,23.0,21.2,93,29.68,5.0,Calm,Calm,-,N/A,,Overcast,0,2012-12-19 00:36:00
6:55 PM,23.0,21.2,93,29.68,4.0,Calm,Calm,-,N/A,Snow,Light Snow,0,2012-12-19 00:55:00
7:16 PM,23.0,21.2,93,29.68,4.0,Calm,Calm,-,N/A,Snow,Light Snow,0,2012-12-19 01:16:00
7:35 PM,23.0,21.2,93,29.68,3.0,Calm,Calm,-,N/A,Snow,Light Snow,0,2012-12-19 01:35:00
7:55 PM,23.0,21.2,93,29.68,3.0,Calm,Calm,-,N/A,Snow,Light Snow,0,2012-12-19 01:55:00
8:15 PM,23.0,21.2,93,29.68,2.5,Calm,Calm,-,N/A,,Overcast,0,2012-12-19 02:15:00
8:36 PM,23.0,21.2,93,29.69,1.5,Calm,Calm,-,N/A,,Overcast,0,2012-12-19 02:36:00
8:55 PM,23.0,21.2,93,29.69,2.5,Calm,Calm,-,N/A,Snow,Light Snow,0,2012-12-19 02:55:00
9:15 PM,23.0,21.2,93,29.69,3.0,Calm,Calm,-,N/A,Snow,Light Snow,0,2012-12-19 03:15:00
9:35 PM,23.0,21.2,93,29.69,2.0,Calm,Calm,-,N/A,Snow,Light Snow,0,2012-12-19 03:35:00
9:55 PM,23.0,21.2,93,29.69,3.0,Calm,Calm,-,N/A,Snow,Light Snow,0,2012-12-19 03:55:00
10:15 PM,23.0,21.2,93,29.69,4.0,Calm,Calm,-,N/A,,Overcast,0,2012-12-19 04:15:00
10:35 PM,23.0,21.2,93,29.69,4.0,Calm,Calm,-,N/A,,Overcast,0,2012-12-19 04:35:00
10:55 PM,23.0,21.2,93,29.70,3.0,Calm,Calm,-,N/A,,Overcast,0,2012-12-19 04:55:00
11:15 PM,23.0,21.2,93,29.70,2.5,Calm,Calm,-,N/A,Snow,Light Snow,0,2012-12-19 05:15:00
11:35 PM,23.0,21.2,93,29.70,2.5,Calm,Calm,-,N/A,Snow,Light Snow,0,2012-12-19 05:35:00
11:55 PM,23.0,21.2,93,29.70,2.5,Calm,Calm,-,N/A,Snow,Light Snow,0,2012-12-19 05:55:00